Time,TemperatureF,DewpointF,PressureIn,WindDirection,WindDirectionDegrees,WindSpeedMPH,WindSpeedGustMPH,Humidity,HourlyPrecipIn,Conditions,Clouds,dailyrainin,SoftwareType,DateUTC
2013-07-23 00:32:00,71.0,-99.9,-100.00,WSW,246,-999.0,-999.0,-999,0.12,,,-99.99,,2013-07-23 04:32:00,
2013-07-23 00:43:00,71.0,-99.9,-100.00,WSW,246,-999.0,-999.0,-999,0.12,,,-99.99,,2013-07-23 04:43:00,
2013-07-23 01:52:00,71.0,-99.9,-100.00,WSW,246,-999.0,-999.0,-999,-99.99,,,-99.99,,2013-07-23 05:52:00,
2013-07-23 02:33:00,71.0,-99.9,-100.00,WSW,246,-999.0,-999.0,-999,-99.99,,,-99.99,,2013-07-23 06:33:00,
2013-07-23 02:42:00,71.0,-99.9,-100.00,WSW,246,-999.0,-999.0,-999,-99.99,,,-99.99,,2013-07-23 06:42:00,
2013-07-23 02:52:00,71.0,-99.9,-100.00,WSW,246,-999.0,-999.0,-999,0.31,,,-99.99,,2013-07-23 06:52:00,
2013-07-23 03:33:00,71.0,-99.9,-100.00,WSW,246,-999.0,-999.0,-999,0.31,,,-99.99,,2013-07-23 07:33:00,
2013-07-23 03:42:00,71.0,-99.9,-100.00,WSW,246,-999.0,-999.0,-999,0.31,,,-99.99,,2013-07-23 07:42:00,
2013-07-23 03:52:00,71.0,-99.9,-100.00,WSW,246,-999.0,-999.0,-999,0.06,,,-99.99,,2013-07-23 07:52:00,
2013-07-23 04:43:00,71.0,-99.9,-100.00,WSW,246,-999.0,-999.0,-999,0.06,,,-99.99,,2013-07-23 08:43:00,
2013-07-23 04:52:00,71.0,-99.9,-100.00,WSW,246,-999.0,-999.0,-999,0.00,,,-99.99,,2013-07-23 08:52:00,
2013-07-23 05:43:00,71.0,-99.9,-100.00,WSW,246,-999.0,-999.0,-999,0.00,,,-99.99,,2013-07-23 09:43:00,
2013-07-23 05:52:00,71.0,-99.9,-100.00,WSW,246,-999.0,-999.0,-999,0.00,,,-99.99,,2013-07-23 09:52:00,
2013-07-23 06:32:00,71.0,-99.9,-100.00,WSW,246,-999.0,-999.0,-999,0.00,,,-99.99,,2013-07-23 10:32:00,
2013-07-23 06:44:00,71.0,-99.9,-100.00,WSW,246,-999.0,-999.0,-999,0.00,,,-99.99,,2013-07-23 10:44:00,
2013-07-23 06:52:00,71.0,-99.9,-100.00,WSW,246,-999.0,-999.0,-999,0.00,,,-99.99,,2013-07-23 10:52:00,
2013-07-23 07:43:00,71.0,-99.9,-100.00,WSW,246,-999.0,-999.0,-999,0.00,,,-99.99,,2013-07-23 11:43:00,
2013-07-23 08:33:00,71.0,-99.9,-100.00,WSW,246,-999.0,-999.0,-999,0.00,,,-99.99,,2013-07-23 12:33:00,
2013-07-23 08:43:00,71.0,-99.9,-100.00,WSW,246,-999.0,-999.0,-999,0.00,,,-99.99,,2013-07-23 12:43:00,
2013-07-23 08:52:00,72.0,-99.9,-100.00,WSW,238,-999.0,-999.0,-999,0.00,,,-99.99,,2013-07-23 12:52:00,
2013-07-23 09:32:00,72.0,-99.9,-100.00,WSW,238,-999.0,-999.0,-999,0.00,,,-99.99,,2013-07-23 13:32:00,
2013-07-23 09:43:00,72.0,-99.9,-100.00,WSW,238,-999.0,-999.0,-999,0.00,,,-99.99,,2013-07-23 13:43:00,
2013-07-23 10:52:00,79.0,-99.9,-100.00,SSW,213,-999.0,5.0,-999,0.00,,,-99.99,,2013-07-23 14:52:00,
2013-07-23 11:32:00,79.0,-99.9,-100.00,SSW,213,-999.0,5.0,-999,0.00,,,-99.99,,2013-07-23 15:32:00,
2013-07-23 11:43:00,79.0,-99.9,-100.00,SSW,213,-999.0,5.0,-999,0.00,,,-99.99,,2013-07-23 15:43:00,
2013-07-23 11:52:00,83.0,-99.9,-100.00,SE,125,-999.0,7.0,-999,0.00,,,-99.99,,2013-07-23 15:52:00,
2013-07-23 12:43:00,83.0,-99.9,-100.00,SE,125,-999.0,7.0,-999,0.00,,,-99.99,,2013-07-23 16:43:00,
2013-07-23 12:52:00,83.0,-99.9,-100.00,WSW,248,-999.0,7.0,-999,0.00,,,-99.99,,2013-07-23 16:52:00,
2013-07-23 13:33:00,83.0,-99.9,-100.00,WSW,248,-999.0,7.0,-999,0.00,,,-99.99,,2013-07-23 17:33:00,
2013-07-23 13:42:00,83.0,-99.9,-100.00,WSW,248,-999.0,7.0,-999,0.00,,,-99.99,,2013-07-23 17:42:00,
2013-07-23 14:52:00,74.0,-99.9,-100.00,South,182,-999.0,-999.0,-999,0.43,,,-99.99,,2013-07-23 18:52:00,
2013-07-23 15:36:00,74.0,-99.9,-100.00,South,182,-999.0,-999.0,-999,0.43,,,-99.99,,2013-07-23 19:36:00,
2013-07-23 15:50:00,74.0,-99.9,-100.00,South,182,-999.0,-999.0,-999,0.43,,,-99.99,,2013-07-23 19:50:00,
2013-07-23 15:52:00,76.0,-99.9,-100.00,ESE,109,-999.0,5.0,-999,0.04,,,-99.99,,2013-07-23 19:52:00,
2013-07-23 16:35:00,76.0,-99.9,-100.00,ESE,109,-999.0,5.0,-999,0.04,,,-99.99,,2013-07-23 20:35:00,
2013-07-23 16:48:00,76.0,-99.9,-100.00,ESE,109,-999.0,5.0,-999,0.04,,,-99.99,,2013-07-23 20:48:00,
2013-07-23 19:52:00,73.0,-99.9,-100.00,SSE,159,-999.0,-999.0,-999,0.00,,,-99.99,,2013-07-23 23:52:00,
2013-07-23 20:51:00,73.0,-99.9,-100.00,SSE,159,-999.0,-999.0,-999,0.00,,,-99.99,,2013-07-24 00:51:00,
2013-07-23 21:36:00,72.0,-99.9,-100.00,SSE,159,-999.0,-999.0,-999,0.00,,,-99.99,,2013-07-24 01:36:00,
2013-07-23 21:52:00,70.0,-99.9,-100.00,SSE,159,-999.0,-999.0,-999,0.00,,,-99.99,,2013-07-24 01:52:00,
2013-07-23 22:40:00,70.0,-99.9,-100.00,SSE,159,-999.0,-999.0,-999,0.00,,,-99.99,,2013-07-24 02:40:00,
2013-07-23 22:50:00,70.0,-99.9,-100.00,SSE,159,-999.0,-999.0,-999,0.00,,,-99.99,,2013-07-24 02:50:00,
2013-07-23 23:52:00,68.0,-99.9,-100.00,SSE,159,-999.0,-999.0,-999,0.00,,,-99.99,,2013-07-24 03:52:00,